Location: Alphaba - Cockrum - Ingrams Mill Volunteer Fire Department Station 2
(34.7915°N, 89.7598°W)
Time: 08:32:42
(UTC+00:00)

Cosmos 1937 Rocket - Pass Details

Date: 11 December 2025
Orbit: 743 x 775 km, 74.0° (Epoch: 24 January)

Event Time Altitude Azimuth Distance (km) Brightness Sun altitude
Rises 23:36:53 0° 170° (S) 3,206 6.9 -9.9°
Reaches altitude 10° 23:39:29 10° 160° (SSE) 2,280 6.0 -10.4°
Maximum altitude 23:43:57 30° 100° (E) 1,323 4.3 -11.2°
Enters shadow 23:47:45 13° 44° (NE) 2,060 5.2 -12.0°
